Temperature
21 20 18 18 17 17 16 15 15 14 13 13 13 13 13 13 12 12 12 12 12 12 12 12 12 12 13 13 13 13 14 14 14 15 15 15 15 16 16 16 16 16 17
21 19 18 18 17 17 16 15 15 14 13 13 13 12 12 12 12 12 12 12 12 12 12 12 12 12 12 12 13 13 13 14 14 14 15 16 16 15 16 16 16 16 16
21 20 19 18 17 17 16 15 15 14 13 13 12 12 12 12 12 12 12 12 12 12 12 12 12 12 12 12 12 13 13 13 14 14 14 15 16 16 15 16 16 16 16
21 20 19 18 17 17 16 15 15 14 13 13 13 13 12 13 12 12 12 12 12 11 11 11 11 12 12 12 12 12 13 13 13 14 14 14 14 15 15 15 16 16 16
20 20 19 18 18 17 16 15 15 14 13 13 13 12 13 12 12 12 12 12 12 11 11 11 11 12 12 12 12 12 12 13 13 13 13 14 14 14 15 15 15 15 15
20 19 19 18 17 17 16 16 15 14 14 13 13 12 12 12 12 12 12 12 12 11 11 11 11 11 12 12 12 12 12 12 12 13 13 13 14 14 14 15 15 15 15
20 19 19 18 18 17 16 16 15 14 14 13 13 13 12 12 12 12 12 12 12 12 11 11 11 11 11 11 11 12 12 12 12 12 13 13 13 13 14 14 14 14 15
20 19 19 19 18 17 17 16 15 15 14 14 13 13 12 12 12 12 12 12 12 12 11 11 11 11 11 11 11 12 12 12 12 12 12 12 13 13 13 13 14 14 15
20 19 19 19 18 17 17 16 15 15 14 14 13 13 13 12 12 12 12 12 12 11 11 11 11 11 11 11 11 12 12 12 12 12 12 12 12 12 13 13 13 13 14
20 19 19 19 18 18 17 16 16 15 15 14 14 13 13 13 12 12 12 12 12 12 11 11 11 11 11 11 11 11 11 11 11 12 12 12 12 12 12 12 13 13 13
20 20 19 19 18 17 17 16 16 15 15 14 14 13 13 13 13 12 12 12 12 12 12 11 11 11 11 11 11 11 11 11 11 11 11 12 12 12 12 12 12 12 12
21 20 19 19 18 18 17 16 16 15 15 15 14 14 14 13 13 13 13 12 12 12 12 12 12 12 11 11 11 11 11 11 11 11 11 11 11 11 12 12 12 12 12
20 20 19 19 18 18 17 17 16 16 15 15 14 14 14 14 13 13 13 13 13 12 12 12 12 12 12 12 11 11 11 11 11 11 11 11 11 11 12 12 12 12 12
21 20 19 19 18 18 17 17 16 16 15 15 15 14 14 14 14 13 13 13 13 13 13 13 12 12 12 12 12 12 11 11 11 11 11 11 11 11 11 11 11 11 11
21 20 20 19 19 18 18 17 17 16 16 15 15 15 14 14 14 14 14 14 14 13 13 13 13 13 12 12 12 12 12 12 12 11 11 11 12 12 12 11 11 11 11
21 21 20 20 19 19 18 18 17 16 16 16 15 15 15 15 15 14 14 14 14 14 13 13 13 13 13 13 13 12 12 12 12 12 11 11 11 12 12 12 12 12 11
22 21 21 20 20 19 19 18 17 17 16 16 15 15 15 15 15 15 15 15 14 14 14 14 13 13 13 13 13 13 12 12 12 12 12 11 11 12 11 11 12 11 12
22 21 21 20 20 20 19 18 18 17 16 16 16 16 16 16 15 15 15 15 14 14 14 14 14 14 14 13 13 13 13 12 12 12 12 12 11 11 11 11 11 11 11
22 21 21 21 20 20 19 18 18 17 17 16 16 16 16 16 16 15 15 15 15 15 14 14 14 14 14 14 13 13 13 12 12 12 12 12 12 12 12 11 11 11 11
22 21 21 21 20 20 19 18 18 17 17 17 16 16 16 16 16 16 15 15 15 15 14 14 14 14 14 14 14 13 13 13 13 12 12 12 12 12 12 12 11 11 11
22 22 21 21 20 19 19 18 18 18 17 17 16 16 16 16 16 16 15 15 14 14 14 14 14 13 13 13 13 13 13 12 12 12 12 12 12 12 12 12 11 11 11
22 22 21 21 20 20 19 18 18 18 17 17 17 17 16 16 16 15 15 14 14 14 13 13 13 13 12 13 13 13 13 13 12 12 12 12 12 12 12 12 12 11 11
21 21 21 20 20 20 19 18 18 18 17 17 17 17 16 16 15 15 14 14 14 13 13 12 12 12 12 12 12 12 12 12 12 12 12 12 12 12 11 11 11 11 11
21 21 21 20 20 20 19 18 18 18 17 17 17 16 15 15 15 15 14 13 13 13 12 12 12 11 11 11 11 11 11 12 11 11 12 12 11 11 11 11 11 11 11
20 20 20 20 20 20 19 19 18 18 17 16 16 16 15 15 14 14 14 13 13 13 12 11 11 11 11 11 11 11 11 11 11 11 11 11 11 10 10 10 10 10 10
20 20 20 20 19 19 19 19 18 18 17 16 16 15 15 15 14 14 14 13 13 12 12 11 11 11 11 11 11 11 11 11 11 10 10 10 10 10 10 10 9 9 9
Wind_Speed
10 9 9 8 8 7 5 3 2 0 1 2 3 3 3 3 3 4 5 5 6 6 6 5 5 5 4 5 5 4 4 3 3 3 4 4 5 4 4 5 5 6 5
11 10 10 10 9 8 6 4 2 1 1 1 3 3 3 3 3 3 3 5 5 6 5 6 5 5 4 5 5 4 3 2 2 3 3 3 4 3 4 4 4 5 4
13 12 12 11 10 8 7 4 3 2 1 0 1 2 2 2 2 3 3 4 5 5 6 6 6 5 5 4 5 4 3 3 2 2 2 2 2 2 3 3 4 4 3
13 12 12 12 11 9 7 6 4 3 2 2 2 3 3 3 3 4 3 4 3 4 5 5 5 5 4 4 4 4 4 3 2 2 2 3 2 2 2 2 2 3 3
13 13 13 12 11 9 8 6 5 4 3 2 1 3 3 3 3 3 3 4 3 4 4 5 5 5 4 4 5 5 4 3 3 2 2 2 2 3 2 2 1 1 3
13 12 11 11 10 9 8 7 6 5 4 4 4 3 3 3 4 3 4 3 3 3 4 4 4 4 4 4 4 4 4 3 3 3 2 2 2 2 2 3 3 2 1
13 13 13 13 12 11 10 9 8 6 6 5 5 4 4 4 4 4 3 4 3 3 4 4 5 5 5 4 4 4 4 3 3 3 3 3 3 2 3 3 3 3 2
12 13 13 13 12 12 11 10 9 7 6 6 5 5 4 4 3 3 4 4 4 4 4 5 5 4 5 4 3 4 3 3 3 3 3 3 3 3 3 3 3 3 3
12 13 13 12 12 12 12 11 10 8 7 6 5 5 4 4 4 4 4 4 3 3 4 4 4 4 4 4 4 3 3 3 3 3 3 3 3 3 3 3 4 4 4
11 12 12 12 12 11 11 10 10 8 7 7 6 4 5 4 4 4 4 4 4 3 4 4 4 3 3 3 3 3 3 4 3 3 4 4 3 3 3 3 4 4 5
11 12 12 12 11 11 11 10 10 9 8 7 7 6 5 4 4 4 4 4 4 3 4 3 4 4 3 3 3 4 3 4 4 3 3 3 4 4 3 4 4 4 5
10 11 11 12 12 12 11 11 10 9 8 7 7 6 5 5 5 4 4 4 3 3 4 3 3 3 3 3 4 3 4 4 4 4 4 4 3 4 4 4 5 5 5
10 10 11 12 12 12 12 11 11 10 9 8 7 7 7 6 5 5 4 4 4 4 3 3 3 3 3 4 4 4 4 4 4 4 4 4 4 4 4 4 5 5 5
11 12 12 13 13 13 13 12 11 10 9 9 8 8 7 6 6 5 4 4 4 4 4 4 4 4 4 4 4 4 4 4 3 3 4 4 4 5 5 4 5 5 5
13 13 13 13 14 14 13 13 12 11 10 10 9 9 8 7 6 5 5 5 5 5 5 5 5 4 4 4 5 5 5 5 4 4 4 3 3 5 5 5 5 5 5
15 15 15 14 15 15 14 14 13 12 11 11 10 8 8 7 7 6 6 6 6 6 6 6 6 6 5 2 5 7 6 6 5 5 4 4 4 5 6 6 7 7 7
15 15 15 15 15 15 15 14 14 13 12 12 10 9 9 8 8 7 7 7 7 7 7 7 7 8 6 4 6 8 8 7 6 6 5 4 4 4 5 5 8 9 9
14 14 14 14 14 14 14 14 13 13 13 12 11 10 9 8 8 7 7 7 7 7 7 7 8 8 7 5 7 8 9 8 7 7 6 6 6 4 5 6 6 6 6
12 12 13 14 14 14 14 14 14 14 13 12 11 11 10 9 8 8 7 7 6 7 7 7 7 8 7 6 7 8 8 8 8 7 6 6 6 1 3 7 7 7 6
9 10 11 13 14 14 14 15 14 14 13 12 11 10 9 8 8 7 6 5 5 6 6 6 7 7 8 3 5 8 7 8 7 6 6 4 6 3 3 6 7 7 6
8 10 11 12 13 14 15 15 15 14 13 11 10 9 8 8 7 5 5 5 5 5 6 6 6 6 6 3 3 5 7 7 7 6 5 3 4 5 5 7 7 6 7
8 10 11 11 12 14 15 15 14 12 11 10 9 9 8 6 5 5 4 4 4 4 5 5 5 4 3 2 2 3 6 8 7 6 5 1 3 3 5 5 4 6 6
8 10 11 11 11 13 14 15 13 12 12 11 10 8 8 6 5 5 4 3 3 3 3 3 3 3 3 2 3 5 5 6 6 4 2 3 0 4 4 1 4 5 4
8 9 11 12 12 13 13 13 12 13 13 12 10 9 8 7 6 4 3 2 1 1 2 2 2 3 3 3 4 3 2 4 5 3 3 4 2 2 2 2 2 3 3
8 10 12 13 14 13 13 12 12 13 13 12 10 9 8 7 6 5 2 2 3 2 1 1 2 3 3 5 8 5 3 2 1 1 1 1 1 0 1 2 3 3 4
9 11 12 13 14 14 14 13 13 14 14 12 11 8 8 7 7 7 6 8 6 8 7 6 5 3 4 5 6 6 6 6 3 1 1 1 2 2 3 3 3 3 4
Wind_Direction
209 197 194 194 196 196 199 186 215 209 310 332 328 335 342 335 341 349 355 347 346 346 344 337 344 339 337 330 322 311 290 280 275 258 248 236 233 236 235 244 247 234 229
205 195 195 195 200 196 196 196 194 204 293 349 336 334 332 325 339 331 338 346 348 347 342 345 339 345 337 335 335 326 306 291 272 270 259 239 208 217 224 226 234 240 222
210 199 196 196 196 196 193 193 191 190 200 262 316 308 301 285 308 340 350 349 345 345 342 344 340 342 336 343 341 335 323 304 287 279 272 262 245 200 194 219 225 232 235
208 200 195 196 196 192 187 190 186 194 190 219 288 320 320 335 346 337 343 337 345 346 342 341 341 342 344 343 338 350 331 311 303 294 288 290 312 279 218 187 206 217 225
202 197 195 194 192 184 183 188 187 194 200 227 252 282 305 330 331 326 333 331 357 351 351 346 344 344 343 346 344 340 336 323 312 308 298 285 275 266 274 243 211 215 222
198 195 190 188 186 181 183 188 194 198 204 223 238 262 297 306 317 325 337 333 347 347 1 347 342 342 344 342 338 331 334 335 326 310 297 293 283 272 266 264 259 260 240
192 190 187 187 186 187 189 192 198 204 208 221 236 248 264 283 294 313 327 325 337 346 354 342 334 339 339 337 332 324 331 329 325 313 309 302 293 298 286 275 268 267 262
193 192 191 190 189 190 192 197 203 209 211 223 234 243 249 265 286 296 305 311 324 337 337 331 331 334 332 327 332 321 328 327 321 318 315 301 294 293 283 282 283 272 254
193 194 192 192 191 192 194 198 203 210 212 220 228 238 248 259 273 279 286 298 307 319 319 319 323 329 331 331 327 326 329 324 314 315 307 301 303 292 287 279 273 275 269
195 195 193 194 194 193 194 197 205 211 211 216 222 230 245 250 263 275 284 291 295 304 302 310 315 321 323 319 318 316 330 314 314 306 302 304 301 302 289 278 272 268 274
198 196 194 194 192 191 192 196 202 208 209 214 217 222 231 242 252 258 271 275 282 282 290 303 307 316 321 317 316 312 313 307 310 300 297 297 305 295 287 279 270 265 263
201 198 196 192 191 194 195 198 202 204 206 210 214 221 226 231 241 245 254 262 272 279 286 295 297 305 310 312 315 315 309 308 311 309 300 295 292 290 286 281 275 271 266
203 199 195 195 195 196 198 199 201 203 201 202 210 216 220 226 235 243 249 259 265 268 269 281 288 293 294 299 300 301 305 308 308 306 300 298 294 286 282 277 277 277 272
207 203 199 199 199 198 199 200 199 199 198 198 208 216 220 221 229 234 244 252 255 260 267 270 275 282 284 283 287 290 294 297 296 295 293 294 291 292 293 282 280 280 277
213 208 205 203 199 199 200 199 198 197 197 200 208 214 216 216 223 230 238 245 248 257 264 268 270 271 274 278 286 286 283 286 288 286 287 293 301 312 300 296 294 287 278
217 212 207 203 201 200 199 197 196 196 197 204 209 209 214 214 222 231 236 242 248 255 259 262 266 268 266 260 260 276 279 277 276 282 285 279 256 252 251 265 283 289 283
219 211 207 203 202 201 198 196 197 193 197 204 206 205 210 214 222 228 235 240 245 249 256 259 262 264 258 219 241 250 269 273 276 279 280 277 274 269 279 255 242 250 241
220 212 207 201 200 198 194 194 191 192 198 203 205 205 209 214 220 227 237 244 252 253 256 262 263 265 262 227 243 246 254 263 266 265 268 270 275 274 290 288 283 281 268
221 211 205 197 195 192 189 188 189 193 198 202 205 204 208 214 220 227 237 245 252 256 259 263 266 267 261 216 234 250 257 258 259 258 259 265 271 249 277 278 282 286 284
212 199 192 190 189 186 184 189 192 194 198 200 204 205 206 211 220 230 241 244 247 257 266 267 268 270 275 235 231 251 257 259 261 257 251 230 260 299 262 273 281 285 294
197 186 182 184 185 179 181 192 195 199 197 194 197 198 200 207 216 225 232 241 250 261 268 272 271 273 280 263 232 250 258 263 267 265 258 245 188 256 267 273 283 302 307
189 183 181 181 179 179 184 194 197 193 185 183 186 191 194 197 199 206 223 239 251 259 267 276 283 285 281 293 288 262 259 282 268 268 270 262 135 258 272 276 308 308 291
194 187 184 179 178 183 189 195 189 181 177 178 182 185 184 183 189 195 203 218 236 262 279 288 299 310 322 311 237 249 248 254 258 267 19 36 89 261 244 233 298 287 281
205 192 186 185 185 184 190 194 181 176 177 180 181 181 182 179 176 175 187 199 227 256 281 306 314 320 329 342 337 310 260 217 230 236 170 171 182 246 320 313 293 308 325
213 201 199 196 190 184 185 184 177 177 181 182 179 180 177 170 163 148 115 130 79 45 359 342 333 329 334 7 359 337 332 323 330 263 168 130 105 35 5 354 352 346 342
221 210 206 201 195 187 184 180 178 181 184 183 180 175 168 163 159 147 123 71 84 81 66 41 13 57 40 24 34 38 34 35 30 97 111 82 52 29 14 1 356 357 353
Height
1519 1521 1522 1524 1525 1526 1526 1526 1526 1525 1524 1524 1523 1522 1521 1520 1518 1517 1514 1513 1511 1510 1509 1507 1506 1504 1503 1502 1502 1501 1501 1501 1501 1501 1502 1502 1502 1503 1504 1506 1508 1510 1511
1516 1518 1519 1521 1523 1524 1524 1525 1525 1524 1523 1522 1522 1521 1520 1519 1517 1516 1514 1513 1511 1509 1509 1507 1506 1504 1502 1501 1500 1500 1499 1499 1499 1500 1501 1501 1502 1501 1502 1504 1505 1507 1509
1512 1515 1517 1519 1520 1522 1523 1523 1523 1523 1522 1521 1521 1520 1519 1518 1518 1516 1514 1512 1510 1509 1507 1506 1505 1503 1502 1501 1500 1499 1499 1498 1498 1499 1500 1500 1499 1500 1501 1501 1503 1504 1506
1508 1511 1514 1516 1518 1519 1520 1522 1522 1522 1521 1521 1521 1520 1520 1519 1517 1516 1514 1512 1510 1509 1507 1505 1504 1503 1502 1501 1500 1499 1498 1498 1498 1498 1498 1499 1499 1500 1500 1500 1501 1502 1503
1505 1508 1510 1513 1515 1517 1518 1519 1520 1520 1520 1520 1519 1519 1519 1518 1517 1515 1514 1512 1510 1508 1506 1505 1504 1503 1502 1500 1499 1498 1497 1497 1497 1497 1497 1497 1498 1498 1499 1499 1500 1500 1501
1501 1505 1508 1510 1512 1514 1515 1517 1518 1518 1518 1518 1518 1518 1518 1517 1516 1515 1514 1512 1511 1509 1507 1505 1504 1502 1501 1500 1499 1498 1497 1496 1496 1496 1496 1496 1497 1497 1498 1498 1499 1499 1500
1498 1501 1504 1506 1509 1511 1513 1515 1516 1517 1517 1517 1517 1517 1516 1516 1516 1515 1513 1512 1511 1509 1507 1505 1503 1502 1501 1499 1498 1498 1497 1496 1496 1495 1495 1495 1496 1496 1496 1497 1498 1498 1498
1495 1498 1501 1503 1506 1508 1510 1512 1514 1515 1515 1515 1516 1516 1515 1515 1515 1513 1512 1512 1510 1509 1506 1504 1503 1501 1500 1499 1498 1497 1497 1496 1495 1495 1494 1494 1494 1495 1495 1496 1496 1496 1497
1492 1495 1498 1501 1503 1505 1507 1509 1511 1513 1513 1514 1514 1514 1514 1514 1513 1512 1511 1510 1509 1507 1506 1504 1503 1501 1500 1498 1497 1497 1496 1495 1495 1494 1494 1493 1493 1493 1493 1494 1494 1496 1495
1490 1492 1495 1497 1500 1503 1505 1507 1509 1510 1511 1512 1512 1512 1512 1512 1511 1511 1510 1509 1508 1506 1505 1504 1503 1501 1500 1498 1497 1497 1495 1494 1494 1492 1492 1492 1492 1492 1492 1492 1492 1493 1494
1487 1489 1492 1494 1497 1500 1502 1504 1506 1507 1509 1509 1510 1510 1511 1510 1510 1509 1508 1507 1507 1505 1504 1503 1502 1501 1500 1499 1497 1496 1495 1494 1494 1493 1492 1491 1490 1490 1490 1490 1490 1491 1491
1485 1487 1489 1491 1494 1496 1499 1501 1503 1505 1506 1507 1508 1508 1509 1508 1508 1508 1507 1506 1506 1505 1504 1503 1502 1501 1499 1498 1497 1495 1494 1493 1492 1492 1491 1490 1489 1489 1489 1488 1489 1489 1489
1481 1483 1485 1487 1490 1493 1495 1498 1500 1502 1503 1504 1505 1506 1507 1507 1507 1507 1506 1505 1505 1504 1503 1502 1501 1500 1498 1497 1496 1495 1494 1493 1491 1490 1490 1489 1488 1488 1487 1487 1487 1486 1486
1478 1479 1481 1483 1486 1489 1492 1494 1496 1498 1500 1501 1503 1504 1505 1505 1505 1505 1504 1504 1504 1503 1502 1501 1500 1499 1498 1497 1496 1494 1493 1492 1491 1490 1489 1488 1487 1486 1486 1485 1485 1484 1484
1473 1474 1476 1479 1482 1485 1487 1490 1493 1495 1497 1498 1500 1501 1503 1503 1503 1503 1503 1502 1502 1501 1501 1500 1499 1498 1497 1496 1494 1494 1492 1492 1491 1489 1488 1486 1485 1484 1483 1483 1482 1482 1481
1467 1469 1472 1474 1477 1480 1483 1486 1488 1491 1493 1495 1497 1498 1500 1500 1501 1501 1501 1501 1500 1500 1499 1498 1498 1496 1495 1494 1492 1491 1491 1490 1489 1488 1487 1485 1483 1482 1481 1480 1479 1479 1478
1461 1463 1466 1469 1472 1475 1478 1481 1484 1487 1490 1492 1494 1495 1496 1497 1498 1498 1499 1498 1498 1498 1497 1496 1495 1494 1494 1492 1491 1489 1489 1488 1488 1487 1485 1484 1482 1480 1480 1478 1477 1476 1475
1455 1457 1461 1464 1467 1471 1474 1477 1480 1483 1486 1488 1490 1492 1493 1494 1495 1496 1496 1496 1496 1495 1494 1493 1492 1491 1490 1489 1488 1487 1486 1486 1485 1484 1483 1482 1481 1479 1478 1476 1475 1474 1473
1449 1452 1455 1459 1462 1466 1469 1473 1476 1479 1482 1484 1487 1488 1490 1491 1492 1493 1493 1493 1492 1492 1491 1490 1489 1488 1487 1486 1485 1484 1484 1483 1483 1482 1480 1479 1478 1477 1475 1474 1473 1472 1471
1444 1447 1450 1454 1458 1461 1465 1468 1472 1475 1477 1480 1483 1485 1487 1488 1489 1489 1490 1489 1489 1488 1487 1486 1485 1484 1483 1482 1481 1481 1480 1481 1480 1479 1478 1476 1475 1474 1473 1472 1471 1470 1469
1440 1443 1446 1450 1453 1457 1460 1464 1468 1471 1474 1476 1479 1481 1483 1484 1485 1486 1486 1486 1485 1484 1484 1483 1481 1480 1479 1478 1477 1476 1476 1477 1477 1476 1475 1474 1472 1471 1470 1469 1468 1467 1466
1437 1440 1443 1446 1449 1452 1456 1460 1463 1467 1470 1472 1475 1477 1479 1480 1481 1482 1482 1482 1481 1481 1480 1479 1478 1477 1475 1474 1473 1472 1472 1472 1472 1472 1472 1471 1469 1468 1468 1467 1466 1464 1463
1435 1437 1440 1442 1445 1448 1452 1456 1459 1462 1465 1468 1471 1473 1475 1476 1477 1478 1478 1478 1478 1478 1477 1476 1475 1474 1472 1471 1469 1469 1468 1468 1468 1468 1467 1467 1466 1466 1465 1464 1463 1462 1461
1432 1434 1436 1439 1441 1444 1448 1451 1455 1458 1461 1464 1466 1469 1471 1472 1473 1474 1474 1475 1474 1474 1473 1473 1472 1471 1469 1468 1467 1466 1465 1465 1465 1465 1464 1464 1463 1463 1462 1462 1461 1460 1459
1429 1430 1432 1434 1437 1440 1443 1447 1450 1453 1457 1460 1462 1464 1466 1468 1469 1470 1470 1470 1470 1470 1470 1469 1468 1468 1467 1465 1464 1463 1462 1462 1462 1462 1462 1461 1461 1461 1460 1459 1458 1457 1456
1424 1425 1427 1429 1432 1435 1438 1441 1445 1448 1452 1455 1458 1460 1462 1463 1465 1466 1466 1466 1467 1467 1466 1466 1465 1464 1464 1462 1461 1460 1460 1459 1459 1460 1460 1460 1459 1459 1458 1457 1456 1455 1454